Precipitable_Water
0.58 0.58 0.67 0.71 0.71 0.72 0.75 0.79 0.83 0.80 0.82 0.83 0.88 0.88 0.85 0.85 0.79 0.74 0.69 0.71 0.65 0.59
0.55 0.55 0.54 0.60 0.65 0.71 0.72 0.75 0.76 0.75 0.79 0.77 0.79 0.81 0.82 0.77 0.76 0.78 0.74 0.68 0.61 0.58
0.52 0.52 0.54 0.53 0.53 0.56 0.64 0.65 0.68 0.68 0.70 0.66 0.70 0.76 0.73 0.70 0.73 0.70 0.68 0.66 0.61 0.55
0.49 0.51 0.52 0.51 0.51 0.51 0.52 0.55 0.58 0.60 0.58 0.61 0.64 0.64 0.63 0.64 0.63 0.60 0.58 0.58 0.53 0.47
0.45 0.46 0.47 0.48 0.50 0.51 0.50 0.52 0.52 0.55 0.56 0.55 0.54 0.54 0.57 0.56 0.53 0.51 0.49 0.46 0.44 0.41
0.39 0.41 0.42 0.44 0.45 0.47 0.48 0.49 0.48 0.50 0.50 0.50 0.50 0.48 0.48 0.47 0.46 0.46 0.44 0.41 0.38 0.37
0.35 0.37 0.38 0.40 0.41 0.42 0.44 0.44 0.45 0.46 0.47 0.48 0.47 0.48 0.45 0.44 0.43 0.40 0.39 0.37 0.36 0.35
0.31 0.34 0.35 0.36 0.37 0.39 0.40 0.41 0.42 0.43 0.44 0.45 0.46 0.46 0.47 0.48 0.48 0.45 0.40 0.38 0.36 0.34
0.21 0.25 0.29 0.32 0.34 0.35 0.36 0.37 0.38 0.38 0.39 0.40 0.41 0.44 0.45 0.44 0.43 0.45 0.45 0.45 0.43 0.42
0.13 0.15 0.18 0.22 0.27 0.30 0.32 0.33 0.34 0.35 0.36 0.36 0.38 0.39 0.41 0.42 0.41 0.41 0.42 0.42 0.44 0.44
0.09 0.10 0.11 0.12 0.15 0.19 0.24 0.28 0.30 0.31 0.32 0.33 0.34 0.36 0.37 0.38 0.38 0.38 0.39 0.40 0.41 0.41
0.08 0.08 0.08 0.09 0.10 0.11 0.13 0.17 0.21 0.26 0.29 0.30 0.30 0.32 0.34 0.35 0.34 0.35 0.35 0.36 0.38 0.38
0.07 0.07 0.07 0.08 0.08 0.09 0.10 0.10 0.12 0.15 0.19 0.23 0.27 0.30 0.31 0.31 0.31 0.30 0.31 0.33 0.34 0.35
0.07 0.07 0.07 0.07 0.08 0.08 0.08 0.08 0.09 0.09 0.10 0.12 0.16 0.20 0.25 0.28 0.29 0.28 0.28 0.29 0.30 0.32
Wind_Speed
32 35 36 37 39 40 40 41 41 42 42 44 42 44 44 46 44 46 47 45 44 43
29 31 34 36 37 36 36 38 41 41 42 43 43 47 47 44 44 46 45 45 45 44
26 28 31 33 35 38 38 38 38 39 41 41 44 46 45 46 47 47 47 46 46 44
21 25 28 30 32 35 37 39 40 40 40 40 42 42 44 46 46 46 47 47 46 46
20 22 24 29 31 33 33 37 39 39 39 41 40 42 45 47 46 47 46 46 46 47
18 20 23 25 28 30 33 35 36 39 41 41 42 41 42 41 44 47 47 46 45 46
18 19 21 24 26 28 30 32 35 35 37 40 42 44 42 43 40 41 43 44 46 46
21 21 22 22 24 27 29 30 33 35 36 38 40 42 43 44 45 43 44 43 45 46
23 24 24 25 25 26 28 30 32 34 35 37 37 39 40 43 45 47 48 50 48 47
26 27 27 28 28 29 29 30 32 34 36 37 38 38 40 41 43 45 46 47 49 49
29 30 31 31 32 32 32 33 34 34 36 38 39 40 42 42 43 43 45 47 48 50
32 33 34 34 35 36 36 36 37 37 38 38 39 40 42 44 45 46 46 46 47 49
35 36 37 38 38 38 39 40 40 40 40 40 40 41 41 42 43 45 47 48 50 50
37 38 39 40 41 41 42 43 43 44 44 44 44 44 44 44 44 44 44 45 46 47
Wind_Direction
237 237 238 238 240 239 242 239 242 236 233 234 238 235 237 232 238 236 233 233 235 236
240 240 239 240 240 241 239 239 234 235 237 238 238 237 234 235 233 230 236 234 234 236
243 242 242 242 241 239 239 238 238 238 237 241 240 235 236 235 235 236 234 234 235 234
249 246 244 244 243 242 241 240 241 242 242 240 236 236 236 238 236 234 231 234 234 235
253 252 250 248 247 245 244 243 243 242 242 239 240 239 239 237 236 233 234 235 236 236
262 258 255 252 249 248 246 245 243 244 241 239 240 240 239 238 237 236 237 236 235 235
268 265 261 256 253 251 249 247 244 244 243 241 242 241 240 237 237 236 235 236 237 237
269 267 265 262 258 255 252 249 246 246 245 245 242 242 242 239 239 239 239 239 239 238
270 268 267 266 263 260 257 253 250 249 247 246 246 244 244 243 244 243 243 243 241 241
273 272 269 267 264 262 260 257 255 252 250 249 247 247 246 247 246 245 244 244 242 243
276 273 271 269 267 264 262 260 258 255 253 251 250 249 248 248 248 247 247 246 246 246
278 275 273 271 269 266 264 262 260 258 256 255 253 252 251 250 250 249 248 248 247 247
281 278 275 272 270 267 265 263 261 260 258 257 255 254 253 252 252 251 251 250 249 249
281 279 276 273 270 268 266 265 263 261 259 257 256 255 254 253 252 252 251 251 251 250